#datetime,building,power
2023-04-20T00:01:00,pth,4.80
2023-04-20T00:03:00,pth,4.80
2023-04-20T00:05:00,pth,3.60
2023-04-20T00:06:00,pth,2.40
2023-04-20T00:08:00,pth,2.40
2023-04-20T00:10:00,pth,2.40
2023-04-20T00:12:00,pth,2.40
2023-04-20T00:13:00,pth,1.20
2023-04-20T00:14:00,pth,1.20
2023-04-20T00:16:00,pth,2.40
2023-04-20T00:18:00,pth,3.60
2023-04-20T00:20:00,pth,2.40
2023-04-20T00:22:00,pth,7.20
2023-04-20T00:23:00,pth,2.40
2023-04-20T00:24:00,pth,2.40
2023-04-20T00:26:00,pth,7.20
2023-04-20T00:27:00,pth,3.60
2023-04-20T00:29:00,pth,4.80
2023-04-20T00:31:00,pth,3.60
2023-04-20T00:33:00,pth,3.60
2023-04-20T00:34:00,pth,1.20
2023-04-20T00:36:00,pth,3.60
2023-04-20T00:38:00,pth,2.40
2023-04-20T00:39:00,pth,1.20
2023-04-20T00:41:00,pth,2.40
2023-04-20T00:42:00,pth,1.20
2023-04-20T00:44:00,pth,3.60
2023-04-20T00:45:00,pth,2.40
2023-04-20T00:46:00,pth,2.40
2023-04-20T00:48:00,pth,4.80
2023-04-20T00:50:00,pth,4.80
2023-04-20T00:51:00,pth,7.20
2023-04-20T00:53:00,pth,15.60
2023-04-20T00:55:00,pth,15.60
2023-04-20T00:56:00,pth,7.20
2023-04-20T00:58:00,pth,14.40
2023-04-20T00:59:00,pth,7.20
2023-04-20T01:01:00,pth,14.40
2023-04-20T01:03:00,pth,14.40
2023-04-20T01:05:00,pth,14.40
2023-04-20T01:06:00,pth,7.20
2023-04-20T01:07:00,pth,8.40
2023-04-20T01:09:00,pth,14.40
2023-04-20T01:11:00,pth,14.40
2023-04-20T01:13:00,pth,15.60
2023-04-20T01:14:00,pth,7.20
2023-04-20T01:15:00,pth,8.40
2023-04-20T01:16:00,pth,7.20
2023-04-20T01:18:00,pth,13.20
2023-04-20T01:19:00,pth,7.20
2023-04-20T01:21:00,pth,10.80
2023-04-20T01:23:00,pth,14.40
2023-04-20T01:24:00,pth,3.60
2023-04-20T01:26:00,pth,13.20
2023-04-20T01:27:00,pth,3.60
2023-04-20T01:29:00,pth,12.00
2023-04-20T01:31:00,pth,9.60
2023-04-20T01:33:00,pth,9.60
2023-04-20T01:35:00,pth,12.00
2023-04-20T01:36:00,pth,6.00
2023-04-20T01:38:00,pth,10.80
2023-04-20T01:40:00,pth,12.00
2023-04-20T01:42:00,pth,13.20
2023-04-20T01:43:00,pth,3.60
2023-04-20T01:45:00,pth,9.60
2023-04-20T01:46:00,pth,6.00
2023-04-20T01:48:00,pth,6.00
2023-04-20T01:49:00,pth,1.20
2023-04-20T01:51:00,pth,2.40
2023-04-20T01:52:00,pth,1.20
2023-04-20T01:53:00,pth,1.20
2023-04-20T01:55:00,pth,2.40
2023-04-20T01:56:00,pth,1.20
2023-04-20T01:57:00,pth,1.20
2023-04-20T01:58:00,pth,2.40
2023-04-20T01:59:00,pth,2.40
2023-04-20T02:01:00,pth,3.60
2023-04-20T02:02:00,pth,2.40
2023-04-20T02:03:00,pth,2.40
2023-04-20T02:04:00,pth,1.20
2023-04-20T02:06:00,pth,3.60
2023-04-20T02:09:00,pth,2.40
2023-04-20T02:10:00,pth,2.40
2023-04-20T02:12:00,pth,2.40
2023-04-20T02:13:00,pth,1.20
2023-04-20T02:15:00,pth,2.40
2023-04-20T02:16:00,pth,1.20
2023-04-20T02:18:00,pth,2.40
2023-04-20T02:21:00,pth,2.40
2023-04-20T02:23:00,pth,3.60
2023-04-20T02:25:00,pth,3.60
2023-04-20T02:26:00,pth,2.40
2023-04-20T02:28:00,pth,4.80
2023-04-20T02:29:00,pth,2.40
2023-04-20T02:31:00,pth,4.80
2023-04-20T02:33:00,pth,2.40
2023-04-20T02:34:00,pth,1.20
2023-04-20T02:36:00,pth,2.40
2023-04-20T02:38:00,pth,3.60
2023-04-20T02:40:00,pth,2.40
2023-04-20T02:41:00,pth,1.20
2023-04-20T02:43:00,pth,2.40
2023-04-20T02:45:00,pth,2.40
2023-04-20T02:47:00,pth,2.40
2023-04-20T02:48:00,pth,2.40
2023-04-20T02:50:00,pth,4.80
2023-04-20T02:52:00,pth,3.60
2023-04-20T02:53:00,pth,2.40
2023-04-20T02:54:00,pth,2.40
2023-04-20T02:56:00,pth,3.60
2023-04-20T02:58:00,pth,4.80
2023-04-20T02:59:00,pth,1.20
2023-04-20T03:01:00,pth,2.40
2023-04-20T03:03:00,pth,2.40
2023-04-20T03:04:00,pth,1.20
2023-04-20T03:06:00,pth,2.40
2023-04-20T03:08:00,pth,2.40
2023-04-20T03:10:00,pth,1.20
2023-04-20T03:12:00,pth,2.40
2023-04-20T03:13:00,pth,2.40
2023-04-20T03:15:00,pth,6.00
2023-04-20T03:17:00,pth,4.80
2023-04-20T03:19:00,pth,6.00
2023-04-20T03:21:00,pth,4.80
2023-04-20T03:23:00,pth,4.80
2023-04-20T03:25:00,pth,3.60
2023-04-20T03:26:00,pth,1.20
2023-04-20T03:27:00,pth,2.40
2023-04-20T03:29:00,pth,2.40
2023-04-20T03:31:00,pth,3.60
2023-04-20T03:33:00,pth,3.60
2023-04-20T03:35:00,pth,3.60
2023-04-20T03:37:00,pth,3.60
2023-04-20T03:39:00,pth,6.00
2023-04-20T03:40:00,pth,2.40
2023-04-20T03:42:00,pth,4.80
2023-04-20T03:43:00,pth,3.60
2023-04-20T03:45:00,pth,4.80
2023-04-20T03:46:00,pth,2.40
2023-04-20T03:48:00,pth,4.80
2023-04-20T03:49:00,pth,2.40
2023-04-20T03:51:00,pth,2.40
2023-04-20T03:53:00,pth,3.60
2023-04-20T03:55:00,pth,3.60
2023-04-20T03:57:00,pth,3.60
2023-04-20T03:59:00,pth,2.40
2023-04-20T04:00:00,pth,2.40
2023-04-20T04:02:00,pth,3.60
2023-04-20T04:03:00,pth,2.40
2023-04-20T04:05:00,pth,4.80
2023-04-20T04:06:00,pth,2.40
2023-04-20T04:08:00,pth,3.60
2023-04-20T04:09:00,pth,2.40
2023-04-20T04:11:00,pth,3.60
2023-04-20T04:12:00,pth,2.40
2023-04-20T04:13:00,pth,2.40
2023-04-20T04:15:00,pth,2.40
2023-04-20T04:17:00,pth,2.40
2023-04-20T04:19:00,pth,2.40
2023-04-20T04:21:00,pth,2.40
2023-04-20T04:23:00,pth,2.40
2023-04-20T04:25:00,pth,1.20
2023-04-20T04:27:00,pth,3.60
2023-04-20T04:29:00,pth,3.60
2023-04-20T04:31:00,pth,4.80
2023-04-20T04:32:00,pth,1.20
2023-04-20T04:34:00,pth,4.80
2023-04-20T04:36:00,pth,3.60
2023-04-20T04:37:00,pth,1.20
2023-04-20T04:39:00,pth,2.40
2023-04-20T04:40:00,pth,1.20
2023-04-20T04:42:00,pth,1.20
2023-04-20T04:44:00,pth,2.40
2023-04-20T04:46:00,pth,1.20
2023-04-20T04:48:00,pth,2.40
2023-04-20T04:50:00,pth,2.40
2023-04-20T04:52:00,pth,3.60
2023-04-20T04:54:00,pth,3.60
2023-04-20T04:56:00,pth,4.80
2023-04-20T04:58:00,pth,3.60
2023-04-20T05:00:00,pth,3.60
2023-04-20T05:01:00,pth,1.20
2023-04-20T05:03:00,pth,2.40
2023-04-20T05:06:00,pth,2.40
2023-04-20T05:08:00,pth,2.40
2023-04-20T05:09:00,pth,1.20
2023-04-20T05:11:00,pth,1.20
2023-04-20T05:12:00,pth,1.20
2023-04-20T05:14:00,pth,3.60
2023-04-20T05:16:00,pth,3.60
2023-04-20T05:18:00,pth,4.80
2023-04-20T05:19:00,pth,1.20
2023-04-20T05:20:00,pth,2.40
2023-04-20T05:21:00,pth,1.20
2023-04-20T05:23:00,pth,4.80
2023-04-20T05:24:00,pth,1.20
2023-04-20T05:26:00,pth,1.20
2023-04-20T05:27:00,pth,1.20
2023-04-20T05:28:00,pth,1.20
2023-04-20T05:31:00,pth,2.40
2023-04-20T05:32:00,pth,1.20
2023-04-20T05:34:00,pth,1.20
2023-04-20T05:36:00,pth,2.40
2023-04-20T05:38:00,pth,3.60
2023-04-20T05:40:00,pth,3.60
2023-04-20T05:41:00,pth,2.40
2023-04-20T05:43:00,pth,3.60
2023-04-20T05:45:00,pth,3.60
2023-04-20T05:46:00,pth,2.40
2023-04-20T05:48:00,pth,3.60
2023-04-20T05:50:00,pth,1.20
2023-04-20T05:51:00,pth,1.20
2023-04-20T05:53:00,pth,2.40
2023-04-20T05:54:00,pth,1.20
2023-04-20T05:55:00,pth,1.20
2023-04-20T05:58:00,pth,2.40
2023-04-20T05:59:00,pth,2.40
2023-04-20T06:01:00,pth,3.60
2023-04-20T06:03:00,pth,4.80
2023-04-20T06:05:00,pth,3.60
2023-04-20T06:07:00,pth,3.60
2023-04-20T06:09:00,pth,4.80
2023-04-20T06:10:00,pth,2.40
2023-04-20T06:12:00,pth,2.40
2023-04-20T06:13:00,pth,1.20
2023-04-20T06:15:00,pth,1.20
2023-04-20T06:17:00,pth,2.40
2023-04-20T06:20:00,pth,2.40
2023-04-20T06:22:00,pth,2.40
2023-04-20T06:25:00,pth,4.80
2023-04-20T06:27:00,pth,4.80
2023-04-20T06:28:00,pth,1.20
2023-04-20T06:30:00,pth,4.80
2023-04-20T06:32:00,pth,3.60
2023-04-20T06:34:00,pth,3.60
2023-04-20T06:36:00,pth,4.80
2023-04-20T06:37:00,pth,1.20
2023-04-20T06:39:00,pth,2.40
2023-04-20T06:41:00,pth,1.20
2023-04-20T06:43:00,pth,2.40
2023-04-20T06:46:00,pth,2.40
2023-04-20T06:48:00,pth,2.40
2023-04-20T06:49:00,pth,2.40
2023-04-20T06:51:00,pth,4.80
2023-04-20T06:53:00,pth,3.60
2023-04-20T06:55:00,pth,4.80
2023-04-20T06:57:00,pth,3.60
2023-04-20T06:59:00,pth,3.60
2023-04-20T07:01:00,pth,4.80
2023-04-20T07:03:00,pth,2.40
2023-04-20T07:05:00,pth,1.20
2023-04-20T07:07:00,pth,2.40
2023-04-20T07:09:00,pth,1.20
2023-04-20T07:10:00,pth,1.20
2023-04-20T07:12:00,pth,1.20
2023-04-20T07:13:00,pth,1.20
2023-04-20T07:14:00,pth,1.20
2023-04-20T07:16:00,pth,3.60
2023-04-20T07:18:00,pth,3.60
2023-04-20T07:19:00,pth,2.40
2023-04-20T07:21:00,pth,3.60
2023-04-20T07:23:00,pth,3.60
2023-04-20T07:24:00,pth,1.20
2023-04-20T07:26:00,pth,3.60
2023-04-20T07:28:00,pth,2.40
2023-04-20T07:30:00,pth,1.20
2023-04-20T07:32:00,pth,2.40
2023-04-20T07:34:00,pth,1.20
2023-04-20T07:36:00,pth,2.40
2023-04-20T07:37:00,pth,1.20
2023-04-20T07:38:00,pth,1.20
2023-04-20T07:40:00,pth,4.80
2023-04-20T07:42:00,pth,3.60
2023-04-20T07:43:00,pth,1.20
2023-04-20T07:45:00,pth,4.80
2023-04-20T07:47:00,pth,3.60
2023-04-20T07:48:00,pth,2.40
2023-04-20T07:50:00,pth,2.40
2023-04-20T07:52:00,pth,2.40
2023-04-20T07:53:00,pth,1.20
2023-04-20T07:55:00,pth,1.20
2023-04-20T07:56:00,pth,1.20
2023-04-20T07:58:00,pth,2.40
2023-04-20T07:59:00,pth,1.20
2023-04-20T08:01:00,pth,3.60
2023-04-20T08:02:00,pth,2.40
2023-04-20T08:03:00,pth,1.20
2023-04-20T08:05:00,pth,3.60
2023-04-20T08:07:00,pth,3.60
2023-04-20T08:09:00,pth,3.60
2023-04-20T08:11:00,pth,2.40
2023-04-20T08:13:00,pth,1.20
2023-04-20T08:15:00,pth,1.20
2023-04-20T08:16:00,pth,1.20
2023-04-20T08:17:00,pth,1.20
2023-04-20T08:19:00,pth,1.20
2023-04-20T08:20:00,pth,1.20
2023-04-20T08:23:00,pth,3.60
2023-04-20T08:25:00,pth,3.60
2023-04-20T08:26:00,pth,2.40
2023-04-20T08:27:00,pth,1.20
2023-04-20T08:28:00,pth,2.40
2023-04-20T08:30:00,pth,3.60
2023-04-20T08:31:00,pth,1.20
2023-04-20T08:33:00,pth,3.60
2023-04-20T08:34:00,pth,1.20
2023-04-20T08:36:00,pth,1.20
2023-04-20T08:38:00,pth,2.40
2023-04-20T08:41:00,pth,1.20
2023-04-20T08:42:00,pth,1.20
2023-04-20T08:44:00,pth,2.40
2023-04-20T08:45:00,pth,1.20
2023-04-20T08:47:00,pth,3.60
2023-04-20T08:48:00,pth,2.40
2023-04-20T08:50:00,pth,2.40
2023-04-20T08:51:00,pth,2.40
2023-04-20T08:54:00,pth,4.80
2023-04-20T08:56:00,pth,3.60
2023-04-20T08:57:00,pth,1.20
2023-04-20T08:59:00,pth,1.20
2023-04-20T09:01:00,pth,1.20
2023-04-20T09:04:00,pth,2.40
2023-04-20T09:05:00,pth,1.20
2023-04-20T09:07:00,pth,1.20
2023-04-20T09:09:00,pth,3.60
2023-04-20T09:11:00,pth,4.80
2023-04-20T09:12:00,pth,2.40
2023-04-20T09:14:00,pth,3.60
2023-04-20T09:16:00,pth,3.60
2023-04-20T09:18:00,pth,3.60
2023-04-20T09:19:00,pth,2.40
2023-04-20T09:21:00,pth,2.40
2023-04-20T09:23:00,pth,2.40
2023-04-20T09:25:00,pth,2.40
2023-04-20T09:27:00,pth,1.20
2023-04-20T09:28:00,pth,1.20
2023-04-20T09:30:00,pth,2.40
2023-04-20T09:32:00,pth,2.40
2023-04-20T09:34:00,pth,3.60
2023-04-20T09:36:00,pth,3.60
2023-04-20T09:38:00,pth,3.60
2023-04-20T09:39:00,pth,2.40
2023-04-20T09:41:00,pth,3.60
2023-04-20T09:43:00,pth,3.60
2023-04-20T09:45:00,pth,3.60
2023-04-20T09:47:00,pth,1.20
2023-04-20T09:49:00,pth,2.40
2023-04-20T09:50:00,pth,1.20
2023-04-20T09:52:00,pth,1.20
2023-04-20T09:54:00,pth,2.40
2023-04-20T09:55:00,pth,1.20
2023-04-20T09:56:00,pth,1.20
2023-04-20T09:58:00,pth,2.40
2023-04-20T10:00:00,pth,3.60
2023-04-20T10:02:00,pth,4.80
2023-04-20T10:03:00,pth,2.40
2023-04-20T10:05:00,pth,3.60
2023-04-20T10:07:00,pth,3.60
2023-04-20T10:09:00,pth,3.60
2023-04-20T10:11:00,pth,1.20
2023-04-20T10:13:00,pth,2.40
2023-04-20T10:15:00,pth,1.20
2023-04-20T10:17:00,pth,2.40
2023-04-20T10:19:00,pth,1.20
2023-04-20T10:21:00,pth,2.40
2023-04-20T10:23:00,pth,2.40
2023-04-20T10:25:00,pth,4.80
2023-04-20T10:26:00,pth,1.20
2023-04-20T10:28:00,pth,3.60
2023-04-20T10:30:00,pth,4.80
2023-04-20T10:32:00,pth,3.60
2023-04-20T10:34:00,pth,1.20
2023-04-20T10:35:00,pth,1.20
2023-04-20T10:37:00,pth,1.20
2023-04-20T10:38:00,pth,1.20
2023-04-20T10:40:00,pth,2.40
2023-04-20T10:42:00,pth,1.20
2023-04-20T10:44:00,pth,2.40
2023-04-20T10:45:00,pth,1.20
2023-04-20T10:47:00,pth,7.20
2023-04-20T10:48:00,pth,8.40
2023-04-20T10:50:00,pth,15.60
2023-04-20T10:52:00,pth,16.80
2023-04-20T10:53:00,pth,7.20
2023-04-20T10:55:00,pth,16.80
2023-04-20T10:56:00,pth,7.20
2023-04-20T10:58:00,pth,14.40
2023-04-20T10:59:00,pth,7.20
2023-04-20T11:01:00,pth,14.40
2023-04-20T11:02:00,pth,7.20
2023-04-20T11:04:00,pth,9.60
2023-04-20T11:05:00,pth,7.20
2023-04-20T11:07:00,pth,13.20
2023-04-20T11:08:00,pth,3.60
2023-04-20T11:10:00,pth,13.20
2023-04-20T11:11:00,pth,7.20
2023-04-20T11:13:00,pth,12.00
2023-04-20T11:15:00,pth,12.00
2023-04-20T11:16:00,pth,6.00
2023-04-20T11:18:00,pth,15.60
2023-04-20T11:20:00,pth,10.80
2023-04-20T11:21:00,pth,8.40
2023-04-20T11:22:00,pth,6.00
2023-04-20T11:24:00,pth,16.80
2023-04-20T11:25:00,pth,8.40
2023-04-20T11:27:00,pth,14.40
2023-04-20T11:29:00,pth,15.60
2023-04-20T11:31:00,pth,16.80
2023-04-20T11:32:00,pth,8.40
2023-04-20T11:34:00,pth,13.20
2023-04-20T11:36:00,pth,9.60
2023-04-20T11:37:00,pth,6.00
2023-04-20T11:38:00,pth,7.20
2023-04-20T11:40:00,pth,10.80
2023-04-20T11:42:00,pth,16.80
2023-04-20T11:44:00,pth,10.80
2023-04-20T11:46:00,pth,12.00
2023-04-20T11:47:00,pth,2.40
2023-04-20T11:49:00,pth,3.60
2023-04-20T11:50:00,pth,1.20
2023-04-20T11:52:00,pth,3.60
2023-04-20T11:54:00,pth,3.60
2023-04-20T11:55:00,pth,1.20
2023-04-20T11:57:00,pth,3.60
2023-04-20T11:58:00,pth,1.20
2023-04-20T12:00:00,pth,3.60
2023-04-20T12:01:00,pth,1.20
2023-04-20T12:03:00,pth,2.40
2023-04-20T12:05:00,pth,3.60
2023-04-20T12:06:00,pth,1.20
2023-04-20T12:08:00,pth,4.80
2023-04-20T12:10:00,pth,4.80
2023-04-20T12:11:00,pth,2.40
2023-04-20T12:13:00,pth,4.80
2023-04-20T12:14:00,pth,2.40
2023-04-20T12:16:00,pth,3.60
2023-04-20T12:17:00,pth,1.20
2023-04-20T12:19:00,pth,3.60
2023-04-20T12:20:00,pth,1.20
2023-04-20T12:21:00,pth,1.20
2023-04-20T12:23:00,pth,3.60
2023-04-20T12:25:00,pth,3.60
2023-04-20T12:26:00,pth,1.20
2023-04-20T12:27:00,pth,1.20
2023-04-20T12:29:00,pth,3.60
2023-04-20T12:31:00,pth,2.40
2023-04-20T12:33:00,pth,3.60
2023-04-20T12:34:00,pth,1.20
2023-04-20T12:36:00,pth,3.60
2023-04-20T12:37:00,pth,2.40
2023-04-20T12:39:00,pth,4.80
2023-04-20T12:41:00,pth,6.00
2023-04-20T12:42:00,pth,2.40
2023-04-20T12:43:00,pth,2.40
2023-04-20T12:45:00,pth,3.60
2023-04-20T12:46:00,pth,1.20
2023-04-20T12:48:00,pth,3.60
2023-04-20T12:50:00,pth,3.60
2023-04-20T12:51:00,pth,1.20
2023-04-20T12:53:00,pth,3.60
2023-04-20T12:55:00,pth,2.40
2023-04-20T12:57:00,pth,3.60
2023-04-20T12:59:00,pth,2.40
2023-04-20T13:00:00,pth,1.20
2023-04-20T13:02:00,pth,2.40
2023-04-20T13:04:00,pth,3.60
2023-04-20T13:06:00,pth,4.80
2023-04-20T13:08:00,pth,4.80
2023-04-20T13:09:00,pth,2.40
2023-04-20T13:11:00,pth,4.80
2023-04-20T13:12:00,pth,2.40
2023-04-20T13:14:00,pth,3.60
2023-04-20T13:16:00,pth,2.40
2023-04-20T13:17:00,pth,1.20
2023-04-20T13:19:00,pth,3.60
2023-04-20T13:20:00,pth,1.20
2023-04-20T13:22:00,pth,2.40
2023-04-20T13:23:00,pth,2.40
2023-04-20T13:25:00,pth,2.40
2023-04-20T13:26:00,pth,1.20
2023-04-20T13:28:00,pth,3.60
2023-04-20T13:30:00,pth,2.40
2023-04-20T13:32:00,pth,3.60
2023-04-20T13:33:00,pth,1.20
2023-04-20T13:35:00,pth,4.80
2023-04-20T13:37:00,pth,4.80
2023-04-20T13:39:00,pth,4.80
2023-04-20T13:40:00,pth,2.40
2023-04-20T13:42:00,pth,4.80
2023-04-20T13:44:00,pth,3.60
2023-04-20T13:45:00,pth,1.20
2023-04-20T13:47:00,pth,2.40
2023-04-20T13:49:00,pth,3.60
2023-04-20T13:50:00,pth,1.20
2023-04-20T13:52:00,pth,2.40
2023-04-20T13:54:00,pth,3.60
2023-04-20T13:56:00,pth,2.40
2023-04-20T13:58:00,pth,3.60
2023-04-20T14:00:00,pth,2.40
2023-04-20T14:01:00,pth,1.20
2023-04-20T14:03:00,pth,3.60
2023-04-20T14:05:00,pth,3.60
2023-04-20T14:07:00,pth,4.80
2023-04-20T14:09:00,pth,4.80
2023-04-20T14:10:00,pth,2.40
2023-04-20T14:12:00,pth,4.80
2023-04-20T14:14:00,pth,4.80
2023-04-20T14:16:00,pth,3.60
2023-04-20T14:18:00,pth,3.60
2023-04-20T14:19:00,pth,1.20
2023-04-20T14:21:00,pth,3.60
2023-04-20T14:23:00,pth,3.60
2023-04-20T14:24:00,pth,1.20
2023-04-20T14:26:00,pth,3.60
2023-04-20T14:27:00,pth,1.20
2023-04-20T14:29:00,pth,3.60
2023-04-20T14:30:00,pth,1.20
2023-04-20T14:31:00,pth,2.40
2023-04-20T14:33:00,pth,2.40
2023-04-20T14:35:00,pth,3.60
2023-04-20T14:36:00,pth,2.40
2023-04-20T14:38:00,pth,4.80
2023-04-20T14:39:00,pth,2.40
2023-04-20T14:41:00,pth,6.00
2023-04-20T14:43:00,pth,4.80
2023-04-20T14:44:00,pth,2.40
2023-04-20T14:46:00,pth,2.40
2023-04-20T14:48:00,pth,3.60
2023-04-20T14:49:00,pth,1.20
2023-04-20T14:51:00,pth,2.40
2023-04-20T14:52:00,pth,2.40
2023-04-20T14:54:00,pth,2.40
2023-04-20T14:55:00,pth,1.20
2023-04-20T14:57:00,pth,3.60
2023-04-20T14:59:00,pth,3.60
2023-04-20T15:01:00,pth,2.40
2023-04-20T15:02:00,pth,1.20
2023-04-20T15:04:00,pth,3.60
2023-04-20T15:05:00,pth,1.20
2023-04-20T15:06:00,pth,1.20
2023-04-20T15:08:00,pth,4.80
2023-04-20T15:09:00,pth,2.40
2023-04-20T15:10:00,pth,2.40
2023-04-20T15:12:00,pth,4.80
2023-04-20T15:14:00,pth,4.80
2023-04-20T15:15:00,pth,1.20
2023-04-20T15:16:00,pth,1.20
2023-04-20T15:17:00,pth,2.40
2023-04-20T15:19:00,pth,2.40
2023-04-20T15:20:00,pth,1.20
2023-04-20T15:22:00,pth,3.60
2023-04-20T15:24:00,pth,2.40
2023-04-20T15:26:00,pth,3.60
2023-04-20T15:28:00,pth,2.40
2023-04-20T15:29:00,pth,2.40
2023-04-20T15:31:00,pth,2.40
2023-04-20T15:32:00,pth,1.20
2023-04-20T15:34:00,pth,2.40
2023-04-20T15:35:00,pth,1.20
2023-04-20T15:37:00,pth,3.60
2023-04-20T15:38:00,pth,1.20
2023-04-20T15:40:00,pth,4.80
2023-04-20T15:41:00,pth,3.60
2023-04-20T15:43:00,pth,4.80
2023-04-20T15:45:00,pth,4.80
2023-04-20T15:46:00,pth,2.40
2023-04-20T15:47:00,pth,1.20
2023-04-20T15:48:00,pth,1.20
2023-04-20T15:50:00,pth,4.80
2023-04-20T15:52:00,pth,4.80
2023-04-20T15:53:00,pth,3.60
2023-04-20T15:55:00,pth,4.80
2023-04-20T15:56:00,pth,1.20
2023-04-20T15:57:00,pth,2.40
2023-04-20T15:59:00,pth,3.60
2023-04-20T16:01:00,pth,2.40
2023-04-20T16:02:00,pth,2.40
2023-04-20T16:03:00,pth,1.20
2023-04-20T16:04:00,pth,1.20
2023-04-20T16:06:00,pth,6.00
2023-04-20T16:08:00,pth,6.00
2023-04-20T16:10:00,pth,4.80
2023-04-20T16:11:00,pth,3.60
2023-04-20T16:13:00,pth,7.20
2023-04-20T16:14:00,pth,4.80
2023-04-20T16:16:00,pth,8.40
2023-04-20T16:17:00,pth,3.60
2023-04-20T16:18:00,pth,2.40
2023-04-20T16:20:00,pth,2.40
2023-04-20T16:21:00,pth,2.40
2023-04-20T16:23:00,pth,3.60
2023-04-20T16:25:00,pth,2.40
2023-04-20T16:27:00,pth,3.60
2023-04-20T16:28:00,pth,2.40
2023-04-20T16:30:00,pth,3.60
2023-04-20T16:32:00,pth,3.60
2023-04-20T16:33:00,pth,2.40
2023-04-20T16:34:00,pth,2.40
2023-04-20T16:36:00,pth,3.60
2023-04-20T16:38:00,pth,2.40
2023-04-20T16:39:00,pth,2.40
2023-04-20T16:41:00,pth,2.40
2023-04-20T16:43:00,pth,6.00
2023-04-20T16:44:00,pth,2.40
2023-04-20T16:46:00,pth,4.80
2023-04-20T16:48:00,pth,6.00
2023-04-20T16:49:00,pth,2.40
2023-04-20T16:51:00,pth,3.60
2023-04-20T16:53:00,pth,2.40
2023-04-20T16:55:00,pth,3.60
2023-04-20T16:57:00,pth,3.60
2023-04-20T16:58:00,pth,1.20
2023-04-20T17:00:00,pth,4.80
2023-04-20T17:02:00,pth,2.40
2023-04-20T17:03:00,pth,2.40
2023-04-20T17:05:00,pth,3.60
2023-04-20T17:07:00,pth,2.40
2023-04-20T17:08:00,pth,2.40
2023-04-20T17:10:00,pth,2.40
2023-04-20T17:11:00,pth,1.20
2023-04-20T17:13:00,pth,3.60
2023-04-20T17:15:00,pth,4.80
2023-04-20T17:17:00,pth,4.80
2023-04-20T17:18:00,pth,2.40
2023-04-20T17:20:00,pth,4.80
2023-04-20T17:21:00,pth,2.40
2023-04-20T17:23:00,pth,2.40
2023-04-20T17:24:00,pth,1.20
2023-04-20T17:26:00,pth,3.60
2023-04-20T17:28:00,pth,3.60
2023-04-20T17:30:00,pth,2.40
2023-04-20T17:31:00,pth,1.20
2023-04-20T17:32:00,pth,2.40
2023-04-20T17:34:00,pth,2.40
2023-04-20T17:36:00,pth,3.60
2023-04-20T17:38:00,pth,2.40
2023-04-20T17:39:00,pth,2.40
2023-04-20T17:40:00,pth,1.20
2023-04-20T17:41:00,pth,1.20
2023-04-20T17:43:00,pth,3.60
2023-04-20T17:45:00,pth,6.00
2023-04-20T17:46:00,pth,2.40
2023-04-20T17:48:00,pth,4.80
2023-04-20T17:49:00,pth,2.40
2023-04-20T17:51:00,pth,4.80
2023-04-20T17:52:00,pth,1.20
2023-04-20T17:54:00,pth,2.40
2023-04-20T17:56:00,pth,3.60
2023-04-20T17:57:00,pth,1.20
2023-04-20T17:58:00,pth,2.40
2023-04-20T18:00:00,pth,2.40
2023-04-20T18:01:00,pth,1.20
2023-04-20T18:02:00,pth,2.40
2023-04-20T18:04:00,pth,2.40
2023-04-20T18:05:00,pth,2.40
2023-04-20T18:06:00,pth,1.20
2023-04-20T18:08:00,pth,2.40
2023-04-20T18:09:00,pth,1.20
2023-04-20T18:11:00,pth,3.60
2023-04-20T18:13:00,pth,3.60
2023-04-20T18:15:00,pth,4.80
2023-04-20T18:17:00,pth,4.80
2023-04-20T18:19:00,pth,4.80
2023-04-20T18:21:00,pth,4.80
2023-04-20T18:23:00,pth,3.60
2023-04-20T18:25:00,pth,2.40
2023-04-20T18:26:00,pth,2.40
2023-04-20T18:27:00,pth,1.20
2023-04-20T18:28:00,pth,1.20
2023-04-20T18:30:00,pth,3.60
2023-04-20T18:32:00,pth,2.40
2023-04-20T18:33:00,pth,2.40
2023-04-20T18:35:00,pth,2.40
2023-04-20T18:37:00,pth,3.60
2023-04-20T18:39:00,pth,2.40
2023-04-20T18:40:00,pth,1.20
2023-04-20T18:42:00,pth,3.60
2023-04-20T18:44:00,pth,2.40
2023-04-20T18:45:00,pth,2.40
2023-04-20T18:47:00,pth,4.80
2023-04-20T18:49:00,pth,4.80
2023-04-20T18:50:00,pth,3.60
2023-04-20T18:51:00,pth,2.40
2023-04-20T18:53:00,pth,3.60
2023-04-20T18:54:00,pth,1.20
2023-04-20T18:56:00,pth,3.60
2023-04-20T18:58:00,pth,3.60
2023-04-20T19:00:00,pth,3.60
2023-04-20T19:03:00,pth,3.60
2023-04-20T19:04:00,pth,3.60
2023-04-20T19:05:00,pth,1.20
2023-04-20T19:07:00,pth,3.60
2023-04-20T19:08:00,pth,2.40
2023-04-20T19:09:00,pth,1.20
2023-04-20T19:11:00,pth,3.60
2023-04-20T19:12:00,pth,1.20
2023-04-20T19:14:00,pth,4.80
2023-04-20T19:16:00,pth,6.00
2023-04-20T19:17:00,pth,2.40
2023-04-20T19:19:00,pth,4.80
2023-04-20T19:21:00,pth,3.60
2023-04-20T19:23:00,pth,3.60
2023-04-20T19:25:00,pth,2.40
2023-04-20T19:27:00,pth,3.60
2023-04-20T19:29:00,pth,3.60
2023-04-20T19:30:00,pth,1.20
2023-04-20T19:32:00,pth,3.60
2023-04-20T19:34:00,pth,2.40
2023-04-20T19:36:00,pth,3.60
2023-04-20T19:37:00,pth,1.20
2023-04-20T19:38:00,pth,2.40
2023-04-20T19:40:00,pth,3.60
2023-04-20T19:41:00,pth,1.20
2023-04-20T19:43:00,pth,4.80
2023-04-20T19:44:00,pth,3.60
2023-04-20T19:46:00,pth,4.80
2023-04-20T19:48:00,pth,6.00
2023-04-20T19:49:00,pth,2.40
2023-04-20T19:50:00,pth,2.40
2023-04-20T19:52:00,pth,3.60
2023-04-20T19:53:00,pth,2.40
2023-04-20T19:54:00,pth,1.20
2023-04-20T19:56:00,pth,3.60
2023-04-20T19:58:00,pth,4.80
2023-04-20T20:00:00,pth,3.60
2023-04-20T20:02:00,pth,3.60
2023-04-20T20:04:00,pth,3.60
2023-04-20T20:05:00,pth,1.20
2023-04-20T20:07:00,pth,3.60
2023-04-20T20:09:00,pth,4.80
2023-04-20T20:11:00,pth,6.00
2023-04-20T20:12:00,pth,2.40
2023-04-20T20:13:00,pth,2.40
2023-04-20T20:15:00,pth,6.00
2023-04-20T20:17:00,pth,6.00
2023-04-20T20:19:00,pth,4.80
2023-04-20T20:21:00,pth,3.60
2023-04-20T20:23:00,pth,3.60
2023-04-20T20:24:00,pth,2.40
2023-04-20T20:26:00,pth,3.60
2023-04-20T20:28:00,pth,3.60
2023-04-20T20:30:00,pth,3.60
2023-04-20T20:32:00,pth,3.60
2023-04-20T20:34:00,pth,3.60
2023-04-20T20:35:00,pth,2.40
2023-04-20T20:37:00,pth,4.80
2023-04-20T20:39:00,pth,6.00
2023-04-20T20:41:00,pth,6.00
2023-04-20T20:42:00,pth,2.40
2023-04-20T20:44:00,pth,6.00
2023-04-20T20:46:00,pth,6.00
2023-04-20T20:47:00,pth,2.40
2023-04-20T20:48:00,pth,1.20
2023-04-20T20:50:00,pth,3.60
2023-04-20T20:52:00,pth,4.80
2023-04-20T20:53:00,pth,2.40
2023-04-20T20:55:00,pth,3.60
2023-04-20T20:56:00,pth,2.40
2023-04-20T20:57:00,pth,2.40
2023-04-20T20:59:00,pth,4.80
2023-04-20T21:00:00,pth,2.40
2023-04-20T21:02:00,pth,3.60
2023-04-20T21:03:00,pth,2.40
2023-04-20T21:05:00,pth,6.00
2023-04-20T21:06:00,pth,2.40
2023-04-20T21:08:00,pth,6.00
2023-04-20T21:10:00,pth,6.00
2023-04-20T21:11:00,pth,3.60
2023-04-20T21:13:00,pth,6.00
2023-04-20T21:15:00,pth,6.00
2023-04-20T21:16:00,pth,2.40
2023-04-20T21:18:00,pth,4.80
2023-04-20T21:20:00,pth,3.60
2023-04-20T21:22:00,pth,2.40
2023-04-20T21:23:00,pth,2.40
2023-04-20T21:25:00,pth,2.40
2023-04-20T21:27:00,pth,2.40
2023-04-20T21:29:00,pth,2.40
2023-04-20T21:30:00,pth,2.40
2023-04-20T21:31:00,pth,1.20
2023-04-20T21:33:00,pth,2.40
2023-04-20T21:35:00,pth,4.80
2023-04-20T21:36:00,pth,3.60
2023-04-20T21:37:00,pth,2.40
2023-04-20T21:38:00,pth,2.40
2023-04-20T21:40:00,pth,9.60
2023-04-20T21:41:00,pth,8.40
2023-04-20T21:42:00,pth,7.20
2023-04-20T21:44:00,pth,14.40
2023-04-20T21:45:00,pth,7.20
2023-04-20T21:47:00,pth,13.20
2023-04-20T21:48:00,pth,7.20
2023-04-20T21:50:00,pth,13.20
2023-04-20T21:51:00,pth,6.00
2023-04-20T21:52:00,pth,7.20
2023-04-20T21:54:00,pth,13.20
2023-04-20T21:56:00,pth,13.20
2023-04-20T21:57:00,pth,7.20
2023-04-20T21:59:00,pth,13.20
2023-04-20T22:00:00,pth,7.20
2023-04-20T22:02:00,pth,15.60
2023-04-20T22:04:00,pth,15.60
2023-04-20T22:05:00,pth,7.20
2023-04-20T22:07:00,pth,15.60
2023-04-20T22:09:00,pth,15.60
2023-04-20T22:11:00,pth,13.20
2023-04-20T22:12:00,pth,7.20
2023-04-20T22:14:00,pth,13.20
2023-04-20T22:15:00,pth,7.20
2023-04-20T22:16:00,pth,7.20
2023-04-20T22:18:00,pth,7.20
2023-04-20T22:20:00,pth,14.40
2023-04-20T22:21:00,pth,7.20
2023-04-20T22:23:00,pth,7.20
2023-04-20T22:25:00,pth,12.00
2023-04-20T22:26:00,pth,7.20
2023-04-20T22:28:00,pth,9.60
2023-04-20T22:29:00,pth,6.00
2023-04-20T22:31:00,pth,15.60
2023-04-20T22:33:00,pth,7.20
2023-04-20T22:35:00,pth,15.60
2023-04-20T22:37:00,pth,8.40
2023-04-20T22:38:00,pth,3.60
2023-04-20T22:40:00,pth,3.60